Location: Newark
(48.2308°N, 120.8549°W)
Time: 13:44:56
(UTC+00:00)

Transit 2A Rocket - Pass Details

Date: 27 May 2020
Orbit: 584 x 919 km, 66.7° (Epoch: 07 July)

Event Time Altitude Azimuth Distance (km) Brightness Sun altitude
Rises 08:17:50 0° 233° (SW) 3,082 - -20.3°
Reaches altitude 10° 08:20:09 10° 239° (WSW) 2,218 - -20.2°
Exits shadow 08:21:36 19° 246° (WSW) 1,711 6.5 -20.2°
Maximum altitude 08:25:04 48° 314° (NW) 1,013 5.8 -20.2°
Drops below altitude 10° 08:30:31 10° 28° (NNE) 2,450 8.6 -20.0°
Sets 08:33:12 0° 34° (NE) 3,436 9.5 -20.0°
